Total_Precipitation_Accumulation
0.07 0.07 0.09 0.11 0.11 0.12 0.16 0.23 0.29 0.32 0.38 0.43 0.52 0.60 0.88 1.12 1.24 1.40 1.56 1.78 1.96 2.15 2.23 2.44 2.85 3.12 3.31 3.45 3.68 3.95 4.34 4.74 4.88 4.72 4.67 4.71 4.60 4.47 4.14 4.03 4.19 4.24 3.98 3.99
0.09 0.11 0.10 0.11 0.11 0.12 0.17 0.24 0.33 0.38 0.40 0.42 0.61 0.72 0.93 1.37 1.55 1.52 1.56 1.55 1.60 2.04 2.27 2.52 2.86 3.05 3.02 3.19 3.47 3.86 4.32 4.67 4.60 4.75 5.01 5.03 4.93 4.41 4.16 4.09 4.18 4.04 3.78 3.66
0.10 0.09 0.07 0.09 0.11 0.14 0.17 0.21 0.28 0.36 0.50 0.48 0.62 1.07 1.21 1.49 1.64 1.50 1.44 1.45 1.41 1.60 1.93 2.11 2.32 2.54 2.75 3.16 3.59 3.93 4.26 4.40 4.45 4.71 4.89 4.65 4.53 4.15 4.12 4.17 4.10 3.88 3.73 3.66
0.07 0.08 0.07 0.09 0.12 0.13 0.19 0.17 0.20 0.29 0.50 0.65 0.72 1.41 1.66 1.84 1.74 1.43 1.44 1.49 1.59 1.71 1.79 1.92 2.00 2.33 2.72 3.13 3.71 4.15 4.18 4.26 4.16 4.36 4.53 4.40 4.12 3.94 3.85 3.85 3.65 3.56 3.45 3.40
0.10 0.09 0.11 0.10 0.10 0.11 0.15 0.15 0.17 0.27 0.41 0.65 0.78 1.22 1.71 1.79 1.73 1.37 1.26 1.46 1.68 1.66 1.70 1.94 1.91 2.13 2.42 2.84 3.26 3.70 4.06 4.15 3.99 3.98 4.12 4.30 4.12 3.86 3.64 3.50 3.45 3.43 3.43 3.25
0.11 0.10 0.11 0.11 0.11 0.11 0.12 0.17 0.27 0.40 0.62 1.05 0.82 0.93 1.39 1.66 1.56 1.28 1.27 1.39 1.56 1.71 1.70 1.86 2.14 2.22 2.38 2.66 3.05 3.32 3.54 3.54 3.52 3.52 3.60 3.74 3.82 3.80 3.56 3.33 3.37 3.37 3.28 3.16
0.22 0.23 0.18 0.14 0.14 0.13 0.14 0.30 0.75 1.18 1.44 1.24 0.83 0.92 1.31 1.28 1.09 1.01 1.09 1.34 1.58 1.85 1.85 1.88 2.08 2.22 2.32 2.43 2.63 2.81 2.88 2.94 2.93 2.97 2.98 3.00 3.14 3.23 3.12 3.04 3.12 3.17 3.10 3.01
0.32 0.33 0.23 0.19 0.16 0.16 0.18 0.33 0.79 1.08 1.19 1.09 0.99 1.22 1.31 1.06 0.92 0.93 1.01 1.19 1.46 1.63 1.67 1.76 1.85 1.81 1.83 1.89 2.03 2.18 2.27 2.32 2.29 2.39 2.51 2.53 2.75 2.79 2.82 2.95 2.82 2.89 2.86 2.87
0.19 0.21 0.20 0.19 0.19 0.19 0.26 0.36 0.38 0.61 0.74 1.13 1.34 1.44 1.33 1.01 1.16 1.14 1.23 1.27 1.27 1.32 1.36 1.38 1.41 1.48 1.59 1.64 1.71 1.83 1.93 1.97 1.92 2.00 2.18 2.23 2.31 2.46 2.60 2.70 2.57 2.45 2.54 2.46
0.12 0.16 0.18 0.15 0.16 0.19 0.28 0.42 0.55 0.81 1.09 1.29 1.44 1.70 1.88 1.66 1.61 1.51 1.63 1.76 1.45 1.17 1.19 1.22 1.21 1.26 1.30 1.35 1.50 1.66 1.76 1.94 1.99 2.00 2.10 2.00 2.10 2.22 2.38 2.45 2.30 2.31 2.44 2.45
0.11 0.14 0.20 0.22 0.20 0.24 0.38 0.48 0.57 0.74 0.86 1.17 1.58 1.79 1.53 1.72 1.78 1.71 1.58 1.56 1.41 1.06 0.97 1.07 1.01 1.04 1.12 1.19 1.34 1.51 1.77 1.98 1.97 1.84 1.93 1.98 1.97 2.10 2.16 2.17 2.08 2.19 2.32 2.49
0.14 0.15 0.21 0.25 0.24 0.23 0.33 0.48 0.58 0.78 0.87 0.97 1.26 1.56 1.16 1.35 1.35 1.24 1.26 1.12 1.04 0.96 0.78 0.89 0.94 0.90 0.96 1.02 1.15 1.34 1.56 1.75 1.80 1.75 1.78 1.93 2.01 1.99 1.94 1.89 1.93 1.99 2.03 2.13
0.17 0.22 0.37 0.57 0.52 0.35 0.32 0.34 0.41 0.51 0.67 0.78 1.13 1.47 1.05 1.09 1.16 1.13 1.08 1.05 0.91 0.96 0.88 0.84 0.94 0.98 0.95 0.96 1.10 1.29 1.36 1.59 1.83 1.85 1.85 1.98 1.92 1.83 1.85 1.99 2.07 2.03 2.03 2.08
0.17 0.21 0.33 0.60 0.64 0.50 0.40 0.39 0.40 0.45 0.62 0.65 0.76 1.13 1.13 1.15 1.17 1.20 1.13 0.98 0.85 0.90 0.96 0.88 0.88 0.89 0.82 0.87 1.02 1.18 1.30 1.47 1.68 1.85 1.95 2.07 1.98 1.97 2.05 2.17 2.25 2.21 2.12 2.13
0.16 0.17 0.20 0.30 0.38 0.38 0.36 0.37 0.38 0.42 0.47 0.59 0.68 0.88 1.04 1.05 1.10 1.24 1.13 1.00 0.97 0.87 0.87 0.88 0.83 0.75 0.73 0.76 0.86 1.06 1.26 1.42 1.59 1.85 1.98 2.08 2.14 2.15 2.19 2.20 2.27 2.26 2.16 2.14
0.22 0.24 0.27 0.35 0.39 0.43 0.40 0.39 0.35 0.35 0.33 0.38 0.57 0.86 0.86 0.83 0.89 1.05 1.07 1.14 1.12 1.00 0.84 0.77 0.78 0.79 0.80 0.75 0.77 0.85 1.03 1.25 1.44 1.69 1.87 1.94 2.07 2.21 2.21 2.17 2.23 2.24 2.27 2.31
0.28 0.34 0.44 0.49 0.52 0.62 0.64 0.50 0.48 0.47 0.44 0.49 0.74 0.90 0.75 0.76 0.80 0.84 0.89 1.04 1.03 1.00 1.06 1.06 0.97 0.97 0.90 0.89 0.92 0.93 0.95 1.15 1.38 1.57 1.73 1.87 1.99 2.10 2.14 2.09 2.19 2.32 2.31 2.23
0.34 0.43 0.49 0.52 0.71 1.01 0.77 0.50 0.44 0.46 0.52 0.50 0.60 0.67 0.64 0.70 0.71 0.77 0.91 0.93 0.91 0.82 0.84 1.01 1.07 1.09 1.06 1.00 1.08 1.09 1.11 1.24 1.45 1.65 1.78 1.86 2.01 2.06 2.09 2.08 2.05 2.09 2.10 2.08
0.33 0.49 0.59 0.67 0.80 0.84 0.75 0.60 0.58 0.60 0.68 0.52 0.54 0.62 0.67 0.74 0.80 0.92 0.83 0.82 0.88 0.83 0.90 0.96 1.03 1.11 1.24 1.27 1.29 1.33 1.43 1.56 1.57 1.67 1.82 1.94 2.04 2.07 2.06 2.07 2.03 2.06 2.06 2.01
0.37 0.48 0.66 0.72 1.00 1.11 0.91 0.67 0.67 0.78 1.20 0.82 0.69 0.79 0.86 0.85 1.13 1.20 0.85 0.87 1.03 0.90 0.88 0.97 1.04 1.07 1.23 1.38 1.46 1.48 1.58 1.74 1.72 1.74 1.84 1.95 2.04 2.15 2.11 2.20 2.26 2.23 2.13 2.05
0.70 0.73 0.76 0.79 1.05 1.18 0.84 0.66 0.79 1.46 1.67 1.01 0.87 0.93 1.01 1.06 1.09 1.02 0.87 0.99 1.15 1.02 0.95 0.89 1.00 1.26 1.37 1.46 1.59 1.64 1.60 1.63 1.68 1.82 1.93 2.03 2.11 2.18 2.17 2.23 2.28 2.28 2.21 2.17
1.04 1.03 0.98 1.06 1.41 1.55 0.95 0.87 1.24 1.45 1.14 1.06 1.00 0.95 0.98 0.97 0.93 0.88 0.84 0.93 1.04 1.14 1.20 1.23 1.33 1.45 1.47 1.52 1.67 1.79 1.80 1.74 1.82 1.91 1.92 2.03 2.17 2.01 2.00 2.22 2.29 2.32 2.33 2.29
1.15 1.22 1.29 1.37 1.52 1.38 1.25 1.27 1.29 1.16 1.23 1.18 1.04 0.99 0.95 0.96 0.95 0.97 0.93 0.89 1.00 1.19 1.25 1.29 1.34 1.36 1.43 1.53 1.65 1.87 1.93 1.87 1.85 1.93 1.97 1.99 2.04 2.15 2.21 2.27 2.34 2.31 2.26 2.23
1.33 1.21 1.47 1.65 1.61 1.46 1.48 1.41 1.34 1.28 1.29 1.20 1.10 1.12 1.04 1.07 1.20 1.18 1.14 1.10 1.02 1.05 1.09 1.15 1.26 1.29 1.43 1.59 1.76 1.98 2.03 1.97 1.99 2.06 2.15 2.13 2.09 2.14 2.30 2.46 2.46 2.37 2.23 2.26
1.59 1.58 1.77 2.04 1.95 1.71 1.54 1.35 1.25 1.21 1.16 1.10 1.10 1.16 1.18 1.15 1.27 1.31 1.39 1.40 1.30 1.19 1.18 1.28 1.45 1.55 1.62 1.69 1.74 1.89 2.06 2.17 2.25 2.27 2.26 2.27 2.29 2.33 2.41 2.41 2.39 2.39 2.34 2.28
1.63 1.88 2.20 2.34 1.96 1.79 1.75 1.55 1.46 1.27 1.18 1.15 1.15 1.14 1.19 1.19 1.25 1.25 1.35 1.49 1.49 1.48 1.54 1.51 1.52 1.66 1.74 1.74 1.80 1.92 2.15 2.41 2.60 2.57 2.45 2.45 2.44 2.46 2.44 2.47 2.32 2.20 2.11 2.06